Time,TemperatureF,DewpointF,PressureIn,WindDirection,WindDirectionDegrees,WindSpeedMPH,WindSpeedGustMPH,Humidity,HourlyPrecipIn,Conditions,Clouds,dailyrainin,SolarRadiationWatts/m^2,SoftwareType,DateUTC
2013-01-25 00:01:00,49.5,49.0,30.27,WNW,293,0.0,-999.0,97,-99.99,,,0.00,0,weatherlink.com 1.10,2013-01-25 05:01:00,
2013-01-25 00:15:00,48.9,48.0,30.27,WNW,293,0.0,-999.0,97,-99.99,,,0.00,0,weatherlink.com 1.10,2013-01-25 05:15:00,
2013-01-25 00:29:00,48.8,48.0,30.28,WNW,293,0.0,-999.0,97,-99.99,,,0.00,0,weatherlink.com 1.10,2013-01-25 05:29:00,
2013-01-25 00:44:00,48.3,48.0,30.28,WNW,293,0.0,-999.0,98,-99.99,,,0.00,0,weatherlink.com 1.10,2013-01-25 05:44:00,
2013-01-25 01:01:00,48.2,48.0,30.28,WNW,293,0.0,-999.0,98,-99.99,,,0.00,0,weatherlink.com 1.10,2013-01-25 06:01:00,
2013-01-25 01:15:00,47.9,47.0,30.28,WNW,293,0.0,-999.0,98,-99.99,,,0.00,0,weatherlink.com 1.10,2013-01-25 06:15:00,
2013-01-25 01:30:00,47.3,47.0,30.27,WNW,293,0.0,-999.0,98,-99.99,,,0.00,0,weatherlink.com 1.10,2013-01-25 06:30:00,
2013-01-25 01:45:00,46.8,47.0,30.28,ESE,112,0.0,-999.0,99,-99.99,,,0.00,0,weatherlink.com 1.10,2013-01-25 06:45:00,
2013-01-25 02:01:00,46.8,47.0,30.28,ESE,112,0.0,-999.0,99,-99.99,,,0.00,0,weatherlink.com 1.10,2013-01-25 07:01:00,
2013-01-25 02:15:00,46.4,46.0,30.27,ESE,112,0.0,-999.0,99,-99.99,,,0.00,0,weatherlink.com 1.10,2013-01-25 07:15:00,
2013-01-25 02:30:00,47.3,47.0,30.26,ESE,112,0.0,-999.0,100,-99.99,,,0.00,0,weatherlink.com 1.10,2013-01-25 07:30:00,
2013-01-25 02:45:00,47.3,47.0,30.27,ESE,112,0.0,-999.0,100,-99.99,,,0.00,0,weatherlink.com 1.10,2013-01-25 07:45:00,
2013-01-25 03:01:00,46.8,47.0,30.26,ESE,112,0.0,-999.0,100,-99.99,,,0.00,0,weatherlink.com 1.10,2013-01-25 08:01:00,
2013-01-25 03:15:00,46.5,47.0,30.26,ESE,112,0.0,-999.0,100,-99.99,,,0.00,0,weatherlink.com 1.10,2013-01-25 08:15:00,
2013-01-25 03:30:00,46.5,47.0,30.26,ESE,112,0.0,-999.0,100,-99.99,,,0.00,0,weatherlink.com 1.10,2013-01-25 08:30:00,
2013-01-25 03:45:00,47.1,47.0,30.26,ESE,112,0.0,-999.0,100,-99.99,,,0.00,0,weatherlink.com 1.10,2013-01-25 08:45:00,
2013-01-25 04:01:00,46.5,47.0,30.25,ESE,112,0.0,-999.0,100,-99.99,,,0.00,0,weatherlink.com 1.10,2013-01-25 09:01:00,
2013-01-25 04:15:00,46.4,46.0,30.25,ESE,112,0.0,-999.0,100,-99.99,,,0.00,0,weatherlink.com 1.10,2013-01-25 09:15:00,
2013-01-25 04:30:00,46.0,46.0,30.25,ESE,112,0.0,-999.0,100,-99.99,,,0.00,0,weatherlink.com 1.10,2013-01-25 09:30:00,
2013-01-25 04:45:00,45.8,46.0,30.25,ESE,112,0.0,-999.0,100,-99.99,,,0.00,0,weatherlink.com 1.10,2013-01-25 09:45:00,
2013-01-25 05:01:00,45.7,46.0,30.25,ESE,112,0.0,-999.0,100,-99.99,,,0.00,0,weatherlink.com 1.10,2013-01-25 10:01:00,
2013-01-25 05:15:00,45.1,45.0,30.25,North,10,0.0,-999.0,100,-99.99,,,0.00,0,weatherlink.com 1.10,2013-01-25 10:15:00,
2013-01-25 05:30:00,44.6,45.0,30.27,North,10,0.0,-999.0,100,-99.99,,,0.00,0,weatherlink.com 1.10,2013-01-25 10:30:00,
2013-01-25 05:45:00,44.5,45.0,30.27,North,10,0.0,-999.0,100,-99.99,,,0.00,0,weatherlink.com 1.10,2013-01-25 10:45:00,
2013-01-25 06:01:00,44.2,44.0,30.27,North,10,0.0,-999.0,100,-99.99,,,0.00,0,weatherlink.com 1.10,2013-01-25 11:01:00,
2013-01-25 06:15:00,44.3,44.0,30.27,North,10,0.0,-999.0,100,-99.99,,,0.00,0,weatherlink.com 1.10,2013-01-25 11:15:00,
2013-01-25 06:30:00,44.3,44.0,30.27,North,10,0.0,-999.0,100,-99.99,,,0.00,0,weatherlink.com 1.10,2013-01-25 11:30:00,
2013-01-25 06:45:00,44.2,44.0,30.28,North,10,0.0,-999.0,100,-99.99,,,0.00,0,weatherlink.com 1.10,2013-01-25 11:45:00,
2013-01-25 07:01:00,43.8,44.0,30.29,North,10,0.0,-999.0,100,-99.99,,,0.00,0,weatherlink.com 1.10,2013-01-25 12:01:00,
2013-01-25 07:15:00,43.5,44.0,30.29,North,10,0.0,-999.0,100,-99.99,,,0.00,0,weatherlink.com 1.10,2013-01-25 12:15:00,
2013-01-25 07:30:00,43.9,44.0,30.29,North,10,0.0,-999.0,100,-99.99,,,0.00,12,weatherlink.com 1.10,2013-01-25 12:30:00,
2013-01-25 07:45:00,44.2,44.0,30.29,North,10,0.0,-999.0,100,-99.99,,,0.00,28,weatherlink.com 1.10,2013-01-25 12:45:00,
2013-01-25 08:01:00,44.8,45.0,30.29,North,10,0.0,-999.0,100,-99.99,,,0.01,40,weatherlink.com 1.10,2013-01-25 13:01:00,
2013-01-25 08:15:00,46.2,46.0,30.29,North,10,0.0,-999.0,100,-99.99,,,0.01,88,weatherlink.com 1.10,2013-01-25 13:15:00,
2013-01-25 08:30:00,48.5,49.0,30.29,North,10,0.0,-999.0,100,-99.99,,,0.01,146,weatherlink.com 1.10,2013-01-25 13:30:00,
2013-01-25 08:45:00,51.7,52.0,30.30,North,10,0.0,-999.0,100,-99.99,,,0.01,185,weatherlink.com 1.10,2013-01-25 13:45:00,
2013-01-25 09:01:00,53.5,54.0,30.30,NNE,32,0.0,-999.0,100,-99.99,,,0.01,223,weatherlink.com 1.10,2013-01-25 14:01:00,
2013-01-25 09:15:00,55.1,55.0,30.30,NE,47,3.0,-999.0,100,-99.99,,,0.01,265,weatherlink.com 1.10,2013-01-25 14:15:00,
2013-01-25 09:30:00,56.2,56.0,30.30,ENE,61,4.0,-999.0,100,-99.99,,,0.01,311,weatherlink.com 1.10,2013-01-25 14:30:00,
2013-01-25 09:45:00,58.0,58.0,30.31,NE,37,0.0,-999.0,100,-99.99,,,0.01,352,weatherlink.com 1.10,2013-01-25 14:45:00,
2013-01-25 10:01:00,59.9,59.0,30.31,ENE,69,1.0,-999.0,95,-99.99,,,0.01,411,weatherlink.com 1.10,2013-01-25 15:01:00,
2013-01-25 10:15:00,62.3,59.0,30.31,East,84,0.0,-999.0,89,-99.99,,,0.01,448,weatherlink.com 1.10,2013-01-25 15:15:00,
2013-01-25 10:30:00,65.0,57.0,30.30,ENE,67,0.0,-999.0,75,-99.99,,,0.01,489,weatherlink.com 1.10,2013-01-25 15:30:00,
2013-01-25 10:45:00,67.4,55.0,30.30,SE,136,0.0,-999.0,64,-99.99,,,0.01,531,weatherlink.com 1.10,2013-01-25 15:45:00,
2013-01-25 11:01:00,68.3,51.0,30.29,NNE,29,3.0,-999.0,54,-99.99,,,0.01,561,weatherlink.com 1.10,2013-01-25 16:01:00,
2013-01-25 11:15:00,69.8,51.0,30.28,NE,40,1.0,-999.0,51,-99.99,,,0.01,589,weatherlink.com 1.10,2013-01-25 16:15:00,
2013-01-25 11:30:00,70.3,51.0,30.28,NNE,26,0.0,-999.0,50,-99.99,,,0.01,615,weatherlink.com 1.10,2013-01-25 16:30:00,
2013-01-25 11:45:00,71.1,51.0,30.27,NE,46,0.0,-999.0,49,-99.99,,,0.01,635,weatherlink.com 1.10,2013-01-25 16:45:00,
2013-01-25 12:01:00,71.3,49.0,30.26,ENE,77,1.0,-999.0,45,-99.99,,,0.01,656,weatherlink.com 1.10,2013-01-25 17:01:00,
2013-01-25 12:15:00,72.1,50.0,30.25,SSE,165,2.0,-999.0,46,-99.99,,,0.01,670,weatherlink.com 1.10,2013-01-25 17:15:00,
2013-01-25 12:30:00,72.5,50.0,30.24,WSW,253,3.0,-999.0,46,-99.99,,,0.01,682,weatherlink.com 1.10,2013-01-25 17:30:00,
2013-01-25 12:45:00,73.0,50.0,30.23,SSW,192,4.0,-999.0,44,-99.99,,,0.01,686,weatherlink.com 1.10,2013-01-25 17:45:00,
2013-01-25 13:01:00,73.7,50.0,30.22,WSW,237,5.0,-999.0,43,-99.99,,,0.01,680,weatherlink.com 1.10,2013-01-25 18:01:00,
2013-01-25 13:15:00,73.7,49.0,30.21,South,175,4.0,-999.0,42,-99.99,,,0.01,686,weatherlink.com 1.10,2013-01-25 18:15:00,
2013-01-25 13:30:00,74.7,49.0,30.21,WSW,240,5.0,-999.0,40,-99.99,,,0.01,677,weatherlink.com 1.10,2013-01-25 18:30:00,
2013-01-25 13:45:00,74.9,48.0,30.20,WSW,239,8.0,-999.0,38,-99.99,,,0.01,666,weatherlink.com 1.10,2013-01-25 18:45:00,
2013-01-25 14:01:00,74.9,48.0,30.20,WSW,248,2.0,-999.0,38,-99.99,,,0.01,645,weatherlink.com 1.10,2013-01-25 19:01:00,
2013-01-25 14:15:00,74.7,48.0,30.19,SW,219,1.0,-999.0,39,-99.99,,,0.01,628,weatherlink.com 1.10,2013-01-25 19:15:00,
2013-01-25 14:30:00,74.6,48.0,30.18,West,269,0.0,-999.0,39,-99.99,,,0.01,599,weatherlink.com 1.10,2013-01-25 19:30:00,
2013-01-25 14:45:00,75.1,49.0,30.18,South,178,4.0,-999.0,40,-99.99,,,0.01,573,weatherlink.com 1.10,2013-01-25 19:45:00,
2013-01-25 15:01:00,75.4,48.0,30.18,SW,229,1.0,-999.0,38,-99.99,,,0.01,527,weatherlink.com 1.10,2013-01-25 20:01:00,
2013-01-25 15:15:00,76.5,49.0,30.18,West,269,2.0,-999.0,38,-99.99,,,0.01,503,weatherlink.com 1.10,2013-01-25 20:15:00,
2013-01-25 15:45:00,76.0,48.0,30.17,SSE,165,8.0,-999.0,37,-99.99,,,0.01,427,weatherlink.com 1.10,2013-01-25 20:45:00,
2013-01-25 16:01:00,75.6,49.0,30.17,WSW,238,6.0,-999.0,39,-99.99,,,0.01,383,weatherlink.com 1.10,2013-01-25 21:01:00,
2013-01-25 16:15:00,75.8,49.0,30.16,WSW,244,5.0,-999.0,39,-99.99,,,0.01,336,weatherlink.com 1.10,2013-01-25 21:15:00,
2013-01-25 16:30:00,75.3,49.0,30.16,SW,215,2.0,-999.0,40,-99.99,,,0.01,290,weatherlink.com 1.10,2013-01-25 21:30:00,
2013-01-25 16:45:00,75.1,50.0,30.16,SW,229,2.0,-999.0,41,-99.99,,,0.01,227,weatherlink.com 1.10,2013-01-25 21:45:00,
2013-01-25 17:01:00,74.9,50.0,30.16,WSW,258,5.0,-999.0,41,-99.99,,,0.01,176,weatherlink.com 1.10,2013-01-25 22:01:00,
2013-01-25 17:15:00,73.3,50.0,30.17,WSW,246,3.0,-999.0,44,-99.99,,,0.01,39,weatherlink.com 1.10,2013-01-25 22:15:00,
2013-01-25 17:30:00,72.0,50.0,30.17,West,267,1.0,-999.0,46,-99.99,,,0.01,28,weatherlink.com 1.10,2013-01-25 22:30:00,
2013-01-25 17:45:00,70.9,51.0,30.17,WSW,242,0.0,-999.0,49,-99.99,,,0.01,18,weatherlink.com 1.10,2013-01-25 22:45:00,
2013-01-25 18:01:00,69.1,52.0,30.18,WSW,242,0.0,-999.0,54,-99.99,,,0.01,7,weatherlink.com 1.10,2013-01-25 23:01:00,
2013-01-25 18:15:00,66.6,51.0,30.18,WSW,242,0.0,-999.0,58,-99.99,,,0.01,0,weatherlink.com 1.10,2013-01-25 23:15:00,
2013-01-25 18:30:00,64.3,51.0,30.18,WSW,242,0.0,-999.0,62,-99.99,,,0.01,0,weatherlink.com 1.10,2013-01-25 23:30:00,
2013-01-25 18:45:00,62.6,51.0,30.18,WSW,242,0.0,-999.0,67,-99.99,,,0.01,0,weatherlink.com 1.10,2013-01-25 23:45:00,
2013-01-25 19:01:00,64.5,51.0,30.19,WSW,254,7.0,-999.0,62,-99.99,,,0.01,0,weatherlink.com 1.10,2013-01-26 00:01:00,
2013-01-25 19:15:00,64.0,51.0,30.19,West,275,3.0,-999.0,62,-99.99,,,0.01,0,weatherlink.com 1.10,2013-01-26 00:15:00,
2013-01-25 19:30:00,62.9,51.0,30.19,SW,219,0.0,-999.0,65,-99.99,,,0.01,0,weatherlink.com 1.10,2013-01-26 00:30:00,
2013-01-25 19:45:00,61.8,51.0,30.20,WNW,288,0.0,-999.0,68,-99.99,,,0.01,0,weatherlink.com 1.10,2013-01-26 00:45:00,
2013-01-25 20:01:00,61.0,51.0,30.20,WNW,298,3.0,-999.0,70,-99.99,,,0.01,0,weatherlink.com 1.10,2013-01-26 01:01:00,
2013-01-25 20:15:00,60.5,50.0,30.20,WNW,284,0.0,-999.0,69,-99.99,,,0.01,0,weatherlink.com 1.10,2013-01-26 01:15:00,
2013-01-25 20:30:00,59.9,50.0,30.21,WNW,284,0.0,-999.0,70,-99.99,,,0.01,0,weatherlink.com 1.10,2013-01-26 01:30:00,
2013-01-25 20:45:00,59.5,50.0,30.21,SW,235,1.0,-999.0,71,-99.99,,,0.01,0,weatherlink.com 1.10,2013-01-26 01:45:00,
2013-01-25 21:01:00,59.0,50.0,30.21,WNW,289,1.0,-999.0,72,-99.99,,,0.01,0,weatherlink.com 1.10,2013-01-26 02:01:00,
2013-01-25 21:15:00,58.1,50.0,30.21,WNW,290,0.0,-999.0,74,-99.99,,,0.01,0,weatherlink.com 1.10,2013-01-26 02:15:00,
2013-01-25 21:30:00,56.7,49.0,30.21,WNW,290,0.0,-999.0,76,-99.99,,,0.01,0,weatherlink.com 1.10,2013-01-26 02:30:00,
2013-01-25 21:45:00,55.7,49.0,30.20,WNW,290,0.0,-999.0,79,-99.99,,,0.01,0,weatherlink.com 1.10,2013-01-26 02:45:00,
2013-01-25 22:01:00,54.4,49.0,30.20,WNW,290,0.0,-999.0,82,-99.99,,,0.01,0,weatherlink.com 1.10,2013-01-26 03:01:00,
2013-01-25 22:15:00,53.3,49.0,30.21,WNW,290,0.0,-999.0,84,-99.99,,,0.01,0,weatherlink.com 1.10,2013-01-26 03:15:00,
2013-01-25 22:30:00,52.6,49.0,30.20,WNW,290,0.0,-999.0,86,-99.99,,,0.01,0,weatherlink.com 1.10,2013-01-26 03:30:00,
2013-01-25 22:45:00,52.2,49.0,30.20,WNW,290,0.0,-999.0,87,-99.99,,,0.01,0,weatherlink.com 1.10,2013-01-26 03:45:00,
2013-01-25 23:01:00,51.6,49.0,30.21,WNW,290,0.0,-999.0,89,-99.99,,,0.01,0,weatherlink.com 1.10,2013-01-26 04:01:00,
2013-01-25 23:15:00,51.4,48.0,30.21,WNW,290,0.0,-999.0,89,-99.99,,,0.01,0,weatherlink.com 1.10,2013-01-26 04:15:00,
2013-01-25 23:30:00,50.8,48.0,30.21,WNW,290,0.0,-999.0,90,-99.99,,,0.01,0,weatherlink.com 1.10,2013-01-26 04:30:00,
2013-01-25 23:45:00,50.4,48.0,30.21,WNW,290,0.0,-999.0,91,-99.99,,,0.01,0,weatherlink.com 1.10,2013-01-26 04:45:00,